Time,TemperatureF,DewpointF,PressureIn,WindDirection,WindDirectionDegrees,WindSpeedMPH,WindSpeedGustMPH,Humidity,HourlyPrecipIn,Conditions,Clouds,dailyrainin,SoftwareType,DateUTC
2013-05-12 00:02:00,42.0,38.0,30.26,North,351,0.0,0.0,84,0.00,,,0.00,,2013-05-12 05:02:00,
2013-05-12 00:12:00,42.0,38.0,30.26,North,351,0.0,0.0,84,0.00,,,0.00,,2013-05-12 05:12:00,
2013-05-12 00:22:00,41.0,37.0,30.27,North,351,0.0,0.0,84,0.00,,,0.00,,2013-05-12 05:22:00,
2013-05-12 00:32:00,41.0,37.0,30.27,North,351,0.0,0.0,86,0.00,,,0.00,,2013-05-12 05:32:00,
2013-05-12 00:42:00,41.0,37.0,30.27,North,351,0.0,0.0,86,0.00,,,0.00,,2013-05-12 05:42:00,
2013-05-12 00:51:00,40.0,36.0,30.26,North,351,0.0,0.0,87,0.00,,,0.00,,2013-05-12 05:51:00,
2013-05-12 01:01:00,42.0,38.0,30.26,North,351,0.0,0.0,85,0.00,,,0.00,,2013-05-12 06:01:00,
2013-05-12 01:11:00,42.0,38.0,30.26,North,351,0.0,0.0,85,0.00,,,0.00,,2013-05-12 06:11:00,
2013-05-12 01:21:00,41.0,37.0,30.26,North,350,0.0,0.0,84,0.00,,,0.00,,2013-05-12 06:21:00,
2013-05-12 01:32:00,40.0,36.0,30.26,North,351,0.0,0.0,85,0.00,,,0.00,,2013-05-12 06:32:00,
2013-05-12 01:42:00,40.0,36.0,30.25,North,351,0.0,0.0,86,0.00,,,0.00,,2013-05-12 06:42:00,
2013-05-12 01:51:00,40.0,36.0,30.25,North,351,0.0,0.0,86,0.00,,,0.00,,2013-05-12 06:51:00,
2013-05-12 02:01:00,39.0,35.0,30.25,North,351,0.0,0.0,87,0.00,,,0.00,,2013-05-12 07:01:00,
2013-05-12 02:11:00,39.0,35.0,30.25,North,351,0.0,0.0,87,0.00,,,0.00,,2013-05-12 07:11:00,
2013-05-12 02:21:00,38.0,34.0,30.24,North,351,0.0,0.0,87,0.00,,,0.00,,2013-05-12 07:21:00,
2013-05-12 02:32:00,38.0,35.0,30.24,North,351,0.0,0.0,89,0.00,,,0.00,,2013-05-12 07:32:00,
2013-05-12 02:42:00,38.0,35.0,30.24,North,351,0.0,0.0,89,0.00,,,0.00,,2013-05-12 07:42:00,
2013-05-12 02:52:00,38.0,35.0,30.24,North,351,0.0,0.0,89,0.00,,,0.00,,2013-05-12 07:52:00,
2013-05-12 03:02:00,38.0,35.0,30.24,North,351,0.0,0.0,89,0.00,,,0.00,,2013-05-12 08:02:00,
2013-05-12 03:11:00,38.0,35.0,30.24,North,351,0.0,0.0,89,0.00,,,0.00,,2013-05-12 08:11:00,
2013-05-12 03:21:00,38.0,35.0,30.24,North,351,0.0,0.0,90,0.00,,,0.00,,2013-05-12 08:21:00,
2013-05-12 03:32:00,38.0,35.0,30.24,North,351,0.0,0.0,90,0.00,,,0.00,,2013-05-12 08:32:00,
2013-05-12 03:42:00,38.0,35.0,30.24,North,351,0.0,0.0,90,0.00,,,0.00,,2013-05-12 08:42:00,
2013-05-12 03:52:00,38.0,35.0,30.24,North,351,0.0,0.0,90,0.00,,,0.00,,2013-05-12 08:52:00,
2013-05-12 04:01:00,38.0,35.0,30.25,North,351,0.0,0.0,90,0.00,,,0.00,,2013-05-12 09:01:00,
2013-05-12 04:11:00,38.0,35.0,30.25,North,351,0.0,0.0,90,0.00,,,0.00,,2013-05-12 09:11:00,
2013-05-12 04:21:00,38.0,35.0,30.25,North,350,0.0,0.0,90,0.00,,,0.00,,2013-05-12 09:21:00,
2013-05-12 04:33:00,37.0,34.0,30.25,North,351,0.0,0.0,90,0.00,,,0.00,,2013-05-12 09:33:00,
2013-05-12 04:42:00,37.0,34.0,30.25,North,351,0.0,0.0,90,0.00,,,0.00,,2013-05-12 09:42:00,
2013-05-12 04:52:00,37.0,34.0,30.25,North,350,0.0,0.0,90,0.00,,,0.00,,2013-05-12 09:52:00,
2013-05-12 05:03:00,37.0,34.0,30.25,North,351,0.0,0.0,90,0.00,,,0.00,,2013-05-12 10:03:00,
2013-05-12 05:12:00,37.0,34.0,30.25,North,351,0.0,0.0,90,0.00,,,0.00,,2013-05-12 10:12:00,
2013-05-12 05:22:00,36.0,33.0,30.26,North,350,0.0,0.0,90,0.00,,,0.00,,2013-05-12 10:22:00,
2013-05-12 05:33:00,37.0,35.0,30.25,North,351,0.0,0.0,91,0.00,,,0.00,,2013-05-12 10:33:00,
2013-05-12 05:42:00,37.0,35.0,30.25,North,351,0.0,0.0,91,0.00,,,0.00,,2013-05-12 10:42:00,
2013-05-12 05:52:00,37.0,35.0,30.25,North,351,0.0,0.0,91,0.00,,,0.00,,2013-05-12 10:52:00,
2013-05-12 06:02:00,37.0,35.0,30.25,North,351,0.0,0.0,91,0.00,,,0.00,,2013-05-12 11:02:00,
2013-05-12 06:12:00,37.0,35.0,30.25,North,351,0.0,0.0,91,0.00,,,0.00,,2013-05-12 11:12:00,
2013-05-12 06:22:00,37.0,35.0,30.25,North,351,0.0,0.0,91,0.00,,,0.00,,2013-05-12 11:22:00,
2013-05-12 06:32:00,37.0,35.0,30.26,North,350,0.0,0.0,91,0.00,,,0.00,,2013-05-12 11:32:00,
2013-05-12 06:42:00,37.0,35.0,30.26,North,351,0.0,0.0,91,0.00,,,0.00,,2013-05-12 11:42:00,
2013-05-12 06:52:00,37.0,35.0,30.26,North,351,0.0,0.0,91,0.00,,,0.00,,2013-05-12 11:52:00,
2013-05-12 07:01:00,36.0,34.0,30.27,North,350,0.0,0.0,91,0.00,,,0.00,,2013-05-12 12:01:00,
2013-05-12 07:11:00,36.0,34.0,30.28,North,351,0.0,0.0,91,0.00,,,0.00,,2013-05-12 12:11:00,
2013-05-12 07:21:00,36.0,34.0,30.28,North,351,0.0,0.0,91,0.00,,,0.00,,2013-05-12 12:21:00,
2013-05-12 07:32:00,36.0,34.0,30.27,North,350,0.0,0.0,91,0.00,,,0.00,,2013-05-12 12:32:00,
2013-05-12 07:41:00,36.0,34.0,30.27,North,350,0.0,0.0,91,0.00,,,0.00,,2013-05-12 12:41:00,
2013-05-12 07:51:00,38.0,36.0,30.28,North,351,0.0,0.0,92,0.00,,,0.00,,2013-05-12 12:51:00,
2013-05-12 08:01:00,40.0,38.0,30.28,North,350,0.0,0.0,92,0.00,,,0.00,,2013-05-12 13:01:00,
2013-05-12 08:11:00,40.0,38.0,30.28,North,350,0.0,0.0,92,0.00,,,0.00,,2013-05-12 13:11:00,
2013-05-12 08:21:00,41.0,39.0,30.28,North,350,0.0,0.0,92,0.00,,,0.00,,2013-05-12 13:21:00,
2013-05-12 08:32:00,42.0,40.0,30.29,North,351,0.0,0.0,91,0.00,,,0.00,,2013-05-12 13:32:00,
2013-05-12 08:42:00,42.0,40.0,30.29,North,351,0.0,0.0,91,0.00,,,0.00,,2013-05-12 13:42:00,
2013-05-12 08:52:00,45.0,42.0,30.29,North,350,0.0,0.0,88,0.00,,,0.00,,2013-05-12 13:52:00,
2013-05-12 09:01:00,47.0,42.0,30.30,North,351,0.0,0.0,82,0.00,,,0.00,,2013-05-12 14:01:00,
2013-05-12 09:11:00,47.0,42.0,30.30,North,351,0.0,0.0,82,0.00,,,0.00,,2013-05-12 14:11:00,
2013-05-12 09:21:00,48.0,42.0,30.30,North,351,0.0,0.0,80,0.00,,,0.00,,2013-05-12 14:21:00,
2013-05-12 09:32:00,47.0,41.0,30.27,North,351,0.0,0.0,81,0.00,,,0.00,,2013-05-12 14:32:00,
2013-05-12 09:42:00,47.0,39.0,30.24,SSE,148,6.0,11.0,75,0.02,,,0.02,,2013-05-12 14:42:00,
2013-05-12 09:52:00,47.0,39.0,30.24,SSE,148,6.0,11.0,75,0.02,,,0.02,,2013-05-12 14:52:00,
2013-05-12 10:01:00,48.0,43.0,30.25,SE,130,0.0,10.0,84,0.03,,,0.03,,2013-05-12 15:01:00,
2013-05-12 10:11:00,48.0,43.0,30.25,SE,130,0.0,10.0,84,0.03,,,0.03,,2013-05-12 15:11:00,
2013-05-12 10:21:00,48.0,42.0,30.27,ESE,122,2.0,9.0,80,0.04,,,0.04,,2013-05-12 15:21:00,
2013-05-12 10:34:00,46.0,40.0,30.24,SSE,152,10.0,16.0,79,0.07,,,0.07,,2013-05-12 15:34:00,
2013-05-12 10:42:00,46.0,40.0,30.24,SSE,152,10.0,16.0,79,0.07,,,0.07,,2013-05-12 15:42:00,
2013-05-12 10:52:00,47.0,42.0,30.27,NNE,28,0.0,12.0,82,0.05,,,0.07,,2013-05-12 15:52:00,
2013-05-12 11:02:00,51.0,43.0,30.27,SSE,154,6.0,7.0,75,0.04,,,0.07,,2013-05-12 16:02:00,
2013-05-12 11:12:00,51.0,43.0,30.27,SSE,154,6.0,7.0,75,0.04,,,0.07,,2013-05-12 16:12:00,
2013-05-12 11:23:00,52.0,40.0,30.27,SE,139,11.0,15.0,63,0.03,,,0.07,,2013-05-12 16:23:00,
2013-05-12 11:33:00,50.0,39.0,30.26,SE,126,7.0,15.0,65,0.00,,,0.07,,2013-05-12 16:33:00,
2013-05-12 11:42:00,50.0,39.0,30.26,SE,126,7.0,15.0,65,0.00,,,0.07,,2013-05-12 16:42:00,
2013-05-12 11:52:00,50.0,40.0,30.24,SSE,148,9.0,14.0,69,0.00,,,0.07,,2013-05-12 16:52:00,
2013-05-12 12:02:00,51.0,40.0,30.23,SE,138,12.0,16.0,66,0.00,,,0.07,,2013-05-12 17:02:00,
2013-05-12 12:12:00,51.0,40.0,30.23,SE,138,12.0,16.0,66,0.00,,,0.07,,2013-05-12 17:12:00,
2013-05-12 12:22:00,51.0,43.0,30.19,SE,133,13.0,18.0,73,0.01,,,0.08,,2013-05-12 17:22:00,
2013-05-12 12:32:00,56.0,46.0,30.20,SE,138,14.0,22.0,70,0.01,,,0.08,,2013-05-12 17:32:00,
2013-05-12 12:42:00,54.0,42.0,30.23,SE,133,5.0,14.0,63,0.01,,,0.08,,2013-05-12 17:42:00,
2013-05-12 12:52:00,54.0,42.0,30.23,SE,133,5.0,14.0,63,0.01,,,0.08,,2013-05-12 17:52:00,
2013-05-12 13:01:00,56.0,44.0,30.21,SSE,153,11.0,16.0,65,0.01,,,0.08,,2013-05-12 18:01:00,
2013-05-12 13:12:00,56.0,44.0,30.21,SSE,153,11.0,16.0,65,0.01,,,0.08,,2013-05-12 18:12:00,
2013-05-12 13:22:00,58.0,45.0,30.19,SSE,152,13.0,19.0,62,0.00,,,0.08,,2013-05-12 18:22:00,
2013-05-12 13:32:00,57.0,43.0,30.19,SSE,163,12.0,21.0,60,0.00,,,0.08,,2013-05-12 18:32:00,
2013-05-12 13:42:00,57.0,43.0,30.19,SSE,163,12.0,21.0,60,0.00,,,0.08,,2013-05-12 18:42:00,
2013-05-12 13:51:00,60.0,44.0,30.18,SSE,164,13.0,20.0,56,0.00,,,0.08,,2013-05-12 18:51:00,
2013-05-12 14:01:00,61.0,46.0,30.18,South,188,15.0,21.0,58,0.00,,,0.08,,2013-05-12 19:01:00,
2013-05-12 14:11:00,61.0,46.0,30.18,South,188,15.0,21.0,58,0.00,,,0.08,,2013-05-12 19:11:00,
2013-05-12 14:21:00,60.0,44.0,30.17,South,186,17.0,23.0,56,0.00,,,0.08,,2013-05-12 19:21:00,
2013-05-12 14:32:00,61.0,45.0,30.17,SSE,163,12.0,21.0,55,0.00,,,0.08,,2013-05-12 19:32:00,
2013-05-12 14:42:00,62.0,48.0,30.16,SSE,152,13.0,19.0,60,0.00,,,0.08,,2013-05-12 19:42:00,
2013-05-12 14:52:00,62.0,48.0,30.16,SSE,152,13.0,19.0,60,0.00,,,0.08,,2013-05-12 19:52:00,
2013-05-12 15:02:00,63.0,48.0,30.15,SSE,160,12.0,18.0,57,0.00,,,0.08,,2013-05-12 20:02:00,
2013-05-12 15:11:00,64.0,47.0,30.16,South,184,11.0,17.0,55,0.00,,,0.08,,2013-05-12 20:11:00,
2013-05-12 15:21:00,64.0,47.0,30.16,South,184,11.0,17.0,55,0.00,,,0.08,,2013-05-12 20:21:00,
2013-05-12 15:32:00,64.0,49.0,30.15,SSE,165,12.0,19.0,58,0.00,,,0.08,,2013-05-12 20:32:00,
2013-05-12 15:42:00,64.0,49.0,30.15,SSE,165,12.0,19.0,58,0.00,,,0.08,,2013-05-12 20:42:00,
2013-05-12 15:51:00,64.0,48.0,30.14,SSE,152,13.0,19.0,56,0.00,,,0.08,,2013-05-12 20:51:00,
2013-05-12 16:01:00,65.0,49.0,30.14,SSE,163,9.0,15.0,57,0.00,,,0.08,,2013-05-12 21:01:00,
2013-05-12 16:11:00,65.0,49.0,30.14,SSE,163,9.0,15.0,57,0.00,,,0.08,,2013-05-12 21:11:00,
2013-05-12 16:21:00,66.0,49.0,30.13,SSE,150,12.0,18.0,55,0.00,,,0.08,,2013-05-12 21:21:00,
2013-05-12 16:33:00,67.0,51.0,30.12,SSE,163,11.0,19.0,56,0.00,,,0.08,,2013-05-12 21:33:00,
2013-05-12 16:42:00,67.0,51.0,30.12,SSE,163,11.0,19.0,56,0.00,,,0.08,,2013-05-12 21:42:00,
2013-05-12 16:52:00,68.0,49.0,30.11,SSW,200,4.0,18.0,51,0.00,,,0.08,,2013-05-12 21:52:00,
2013-05-12 17:02:00,68.0,49.0,30.11,SSE,163,5.0,13.0,50,0.00,,,0.08,,2013-05-12 22:02:00,
2013-05-12 17:12:00,68.0,49.0,30.11,SSE,163,5.0,13.0,50,0.00,,,0.08,,2013-05-12 22:12:00,
2013-05-12 17:23:00,68.0,49.0,30.11,SSE,168,8.0,15.0,51,0.00,,,0.08,,2013-05-12 22:23:00,
2013-05-12 17:33:00,68.0,48.0,30.10,SSW,196,9.0,15.0,49,0.00,,,0.08,,2013-05-12 22:33:00,
2013-05-12 17:42:00,68.0,48.0,30.10,SSW,196,9.0,15.0,49,0.00,,,0.08,,2013-05-12 22:42:00,
2013-05-12 17:52:00,67.0,50.0,30.10,SSE,148,10.0,17.0,54,0.00,,,0.08,,2013-05-12 22:52:00,
2013-05-12 18:02:00,67.0,50.0,30.09,SSE,167,7.0,18.0,55,0.00,,,0.08,,2013-05-12 23:02:00,
2013-05-12 18:12:00,67.0,50.0,30.09,SSE,167,7.0,18.0,55,0.00,,,0.08,,2013-05-12 23:12:00,
2013-05-12 18:22:00,67.0,50.0,30.09,South,178,9.0,17.0,55,0.00,,,0.08,,2013-05-12 23:22:00,
2013-05-12 18:32:00,67.0,50.0,30.08,SSE,160,9.0,16.0,55,0.00,,,0.08,,2013-05-12 23:32:00,
2013-05-12 18:42:00,67.0,50.0,30.08,SSE,160,9.0,16.0,55,0.00,,,0.08,,2013-05-12 23:42:00,
2013-05-12 18:52:00,67.0,50.0,30.07,South,172,10.0,16.0,54,0.00,,,0.08,,2013-05-12 23:52:00,
2013-05-12 19:01:00,66.0,49.0,30.07,South,173,10.0,15.0,54,0.00,,,0.08,,2013-05-13 00:01:00,
2013-05-12 19:11:00,66.0,49.0,30.07,South,173,10.0,15.0,54,0.00,,,0.08,,2013-05-13 00:11:00,
2013-05-12 19:21:00,66.0,50.0,30.06,SSE,160,5.0,14.0,57,0.00,,,0.08,,2013-05-13 00:21:00,
2013-05-12 19:32:00,66.0,50.0,30.07,SSE,168,6.0,14.0,56,0.00,,,0.08,,2013-05-13 00:32:00,
2013-05-12 19:42:00,66.0,50.0,30.07,SSE,168,6.0,14.0,56,0.00,,,0.08,,2013-05-13 00:42:00,
2013-05-12 19:51:00,65.0,49.0,30.06,SSE,159,5.0,15.0,57,0.00,,,0.08,,2013-05-13 00:51:00,
2013-05-12 20:01:00,64.0,49.0,30.06,SSE,164,6.0,12.0,58,0.00,,,0.08,,2013-05-13 01:01:00,
2013-05-12 20:11:00,64.0,49.0,30.06,SSE,164,6.0,12.0,58,0.00,,,0.08,,2013-05-13 01:11:00,
2013-05-12 20:22:00,63.0,49.0,30.06,SSE,148,5.0,9.0,60,0.00,,,0.08,,2013-05-13 01:22:00,
2013-05-12 20:31:00,61.0,49.0,30.07,SSE,148,4.0,5.0,65,0.00,,,0.08,,2013-05-13 01:31:00,
2013-05-12 20:42:00,61.0,49.0,30.07,SSE,148,4.0,5.0,65,0.00,,,0.08,,2013-05-13 01:42:00,
2013-05-12 20:52:00,60.0,49.0,30.07,SE,146,4.0,6.0,66,0.00,,,0.08,,2013-05-13 01:52:00,
2013-05-12 21:01:00,59.0,48.0,30.07,SE,146,3.0,5.0,66,0.00,,,0.08,,2013-05-13 02:01:00,
2013-05-12 21:11:00,59.0,48.0,30.07,SE,146,3.0,5.0,66,0.00,,,0.08,,2013-05-13 02:11:00,
2013-05-12 21:21:00,58.0,47.0,30.07,SE,146,4.0,5.0,68,0.00,,,0.08,,2013-05-13 02:21:00,
2013-05-12 21:32:00,56.0,47.0,30.07,SE,144,5.0,6.0,71,0.00,,,0.08,,2013-05-13 02:32:00,
2013-05-12 21:41:00,56.0,47.0,30.07,SE,144,5.0,6.0,71,0.00,,,0.08,,2013-05-13 02:41:00,
2013-05-12 21:51:00,55.0,47.0,30.08,SE,132,4.0,6.0,73,0.00,,,0.08,,2013-05-13 02:51:00,
2013-05-12 22:02:00,55.0,47.0,30.09,SE,138,5.0,9.0,74,0.00,,,0.08,,2013-05-13 03:02:00,
2013-05-12 22:11:00,55.0,47.0,30.09,SE,138,5.0,9.0,74,0.00,,,0.08,,2013-05-13 03:11:00,
2013-05-12 22:21:00,55.0,47.0,30.09,SE,138,4.0,6.0,73,0.00,,,0.08,,2013-05-13 03:21:00,
2013-05-12 22:32:00,54.0,46.0,30.09,SE,138,0.0,5.0,75,0.00,,,0.08,,2013-05-13 03:32:00,
2013-05-12 22:42:00,54.0,46.0,30.09,SE,138,0.0,5.0,75,0.00,,,0.08,,2013-05-13 03:42:00,
2013-05-12 22:52:00,53.0,45.0,30.09,SE,138,4.0,6.0,75,0.00,,,0.08,,2013-05-13 03:52:00,
2013-05-12 23:02:00,53.0,46.0,30.10,SE,130,2.0,7.0,76,0.00,,,0.08,,2013-05-13 04:02:00,
2013-05-12 23:12:00,53.0,46.0,30.10,SE,130,2.0,7.0,76,0.00,,,0.08,,2013-05-13 04:12:00,
2013-05-12 23:23:00,53.0,45.0,30.10,SE,133,3.0,6.0,75,0.00,,,0.08,,2013-05-13 04:23:00,
2013-05-12 23:32:00,53.0,45.0,30.10,SE,133,3.0,6.0,75,0.00,,,0.08,,2013-05-13 04:32:00,
2013-05-12 23:42:00,53.0,45.0,30.10,SE,133,3.0,6.0,75,0.00,,,0.08,,2013-05-13 04:42:00,
2013-05-12 23:52:00,53.0,45.0,30.10,SE,141,5.0,10.0,73,0.00,,,0.08,,2013-05-13 04:52:00,